Location: Revò
(46.3917°N, 11.0587°E)
Time: 00:28:43
(UTC+01:00)

ISS - Visible Passes

Search period start: 11 December 2023 00:00
Search period end: 21 December 2023 00:00
Orbit: 415 x 417 km, 51.6° (Epoch: 10 December)

Date Brightness Start Highest point End Pass type
(mag) Time Alt. Az. Time Alt. Az. Time Alt. Az.
15 Dec -0.7 06:57:23 10° S 06:59:43 18° SE 07:02:05 10° E visible
16 Dec -0.3 06:10:10 10° SSE 06:11:11 11° SE 06:12:10 10° ESE visible
17 Dec -2.4 06:55:26 10° SW 06:58:36 41° SE 07:01:47 10° ENE visible
18 Dec -1.6 06:07:04 10° SSW 06:09:54 26° SE 06:12:45 10° E visible
19 Dec -1.1 05:20:16 15° SSE 05:21:15 16° SE 05:23:27 10° E visible
19 Dec -3.8 06:54:14 10° WSW 06:57:34 88° NNW 07:00:56 10° ENE visible
20 Dec -3.4 06:07:12 28° SW 06:08:45 61° SSE 06:12:03 10° ENE visible
